User: anonymous   Login
Location: North Runcton
(52.7000°N, 0.4333°E)
Time: 18:47:56
(UTC+00:00)
Language:

Cosmos 1805 Rocket - Orbit

View from above orbital plane
View from above orbital plane
View from above satellite
View from above satellite

Ground track
Ground track

The orbit data is extracted from the following two-line orbital elements,

1 17192U 86097B   25349.94441718  .00000446  00000-0  48460-4 0  9991
2 17192  82.5059 221.0325 0015014 305.6527  65.2791 14.85805171 87910
Epoch (UTC): 15 December 2025 22:39:57
Eccentricity: 0.0015014
inclination: 82.5059°
perigee height: 600 km
apogee height: 621 km
right ascension of ascending node: 221.0325°
argument of perigee: 305.6527°
revolutions per day: 14.85805171
mean anomaly at epoch: 65.2791°
orbit number at epoch: 8791

The dashed part of the orbit path shows where the satellite is in the earth's shadow,  

DLR